QPF
0.03 0.04 0.05 0.07 0.06 0.04 0.02 0.01 0.00 0.00 0.01 0.01 0.00 0.01 0.01 0.01 0.01 0.02 0.01 0.01 0.01 0.00 0.00 0.00 0.00 0.00 0.00 0.00 0.01 0.01 0.01 0.01 0.02 0.02 0.01 0.01 0.02 0.02 0.01 0.02 0.02 0.02 0.01 0.01 0.01 0.01 0.01 0.01 0.01
0.04 0.07 0.09 0.10 0.07 0.04 0.01 0.00 0.00 0.00 0.00 0.00 0.00 0.00 0.01 0.02 0.02 0.02 0.00 0.01 0.01 0.00 0.00 0.00 0.00 0.00 0.00 0.01 0.01 0.01 0.01 0.01 0.03 0.03 0.02 0.02 0.02 0.02 0.02 0.03 0.03 0.02 0.01 0.01 0.01 0.00 0.00 0.00 0.00
0.07 0.10 0.11 0.11 0.08 0.04 0.01 0.00 0.00 0.00 0.01 0.01 0.00 0.00 0.01 0.02 0.02 0.02 0.01 0.01 0.02 0.01 0.00 0.01 0.01 0.01 0.00 0.01 0.01 0.01 0.01 0.02 0.03 0.02 0.02 0.02 0.02 0.02 0.03 0.04 0.02 0.01 0.01 0.00 0.00 0.00 0.00 0.00 0.00
0.11 0.12 0.12 0.12 0.08 0.02 0.01 0.00 0.00 0.01 0.01 0.01 0.00 0.00 0.01 0.02 0.02 0.02 0.02 0.02 0.02 0.02 0.01 0.01 0.01 0.01 0.01 0.01 0.01 0.01 0.02 0.02 0.03 0.02 0.02 0.03 0.03 0.03 0.03 0.04 0.01 0.00 0.00 0.00 0.00 0.00 0.00 0.00 0.00
0.17 0.17 0.13 0.13 0.08 0.03 0.01 0.01 0.01 0.01 0.01 0.01 0.01 0.02 0.01 0.02 0.01 0.01 0.02 0.03 0.03 0.03 0.03 0.01 0.01 0.01 0.01 0.01 0.01 0.01 0.02 0.03 0.03 0.02 0.02 0.03 0.04 0.05 0.03 0.03 0.01 0.00 0.00 0.00 0.00 0.00 0.00 0.00 0.00
0.18 0.18 0.13 0.11 0.08 0.04 0.01 0.01 0.01 0.02 0.02 0.03 0.03 0.03 0.03 0.03 0.03 0.02 0.03 0.04 0.05 0.06 0.06 0.03 0.01 0.01 0.01 0.02 0.02 0.02 0.03 0.04 0.03 0.02 0.03 0.04 0.05 0.05 0.03 0.01 0.01 0.00 0.00 0.00 0.00 0.00 0.00 0.00 0.00
0.16 0.16 0.12 0.07 0.06 0.06 0.02 0.02 0.02 0.02 0.03 0.04 0.04 0.06 0.05 0.04 0.06 0.04 0.05 0.08 0.11 0.13 0.13 0.08 0.03 0.02 0.02 0.02 0.02 0.02 0.03 0.04 0.03 0.03 0.04 0.04 0.05 0.05 0.02 0.01 0.01 0.01 0.00 0.00 0.00 0.00 0.00 0.00 0.00
0.14 0.15 0.11 0.07 0.05 0.06 0.04 0.03 0.03 0.04 0.04 0.03 0.05 0.07 0.06 0.06 0.06 0.07 0.10 0.14 0.19 0.19 0.18 0.14 0.08 0.04 0.03 0.02 0.02 0.02 0.02 0.03 0.04 0.04 0.04 0.03 0.04 0.04 0.01 0.01 0.01 0.01 0.01 0.00 0.00 0.00 0.00 0.00 0.00
0.13 0.13 0.09 0.06 0.06 0.05 0.06 0.06 0.04 0.04 0.08 0.07 0.07 0.08 0.06 0.07 0.07 0.10 0.14 0.19 0.25 0.26 0.23 0.20 0.16 0.09 0.05 0.03 0.02 0.02 0.03 0.03 0.04 0.04 0.03 0.02 0.04 0.03 0.01 0.01 0.01 0.01 0.00 0.00 0.00 0.00 0.00 0.00 0.00
0.10 0.09 0.06 0.04 0.05 0.06 0.07 0.07 0.06 0.05 0.09 0.11 0.13 0.10 0.09 0.10 0.12 0.13 0.15 0.20 0.26 0.29 0.27 0.23 0.20 0.13 0.08 0.05 0.04 0.04 0.04 0.04 0.04 0.04 0.03 0.03 0.03 0.02 0.01 0.01 0.01 0.01 0.00 0.00 0.00 0.00 0.00 0.00 0.00
0.07 0.06 0.05 0.04 0.04 0.04 0.07 0.07 0.07 0.07 0.09 0.10 0.11 0.13 0.15 0.12 0.14 0.15 0.16 0.23 0.30 0.37 0.33 0.26 0.23 0.19 0.13 0.08 0.05 0.05 0.05 0.04 0.04 0.04 0.03 0.02 0.03 0.02 0.02 0.01 0.01 0.00 0.00 0.00 0.00 0.00 0.00 0.00 0.00
0.05 0.05 0.05 0.04 0.04 0.04 0.05 0.07 0.07 0.06 0.06 0.07 0.08 0.10 0.17 0.17 0.14 0.14 0.16 0.20 0.34 0.43 0.44 0.33 0.28 0.24 0.19 0.12 0.07 0.05 0.05 0.04 0.04 0.04 0.03 0.02 0.02 0.02 0.01 0.01 0.01 0.00 0.00 0.00 0.00 0.00 0.00 0.00 0.00
0.05 0.04 0.04 0.04 0.04 0.05 0.04 0.06 0.07 0.06 0.05 0.05 0.06 0.09 0.14 0.19 0.19 0.18 0.17 0.18 0.32 0.46 0.53 0.45 0.37 0.31 0.24 0.18 0.12 0.07 0.05 0.04 0.03 0.03 0.02 0.01 0.01 0.01 0.01 0.01 0.01 0.00 0.00 0.00 0.00 0.00 0.00 0.00 0.00
0.05 0.04 0.04 0.05 0.04 0.05 0.04 0.05 0.07 0.07 0.06 0.06 0.06 0.07 0.12 0.19 0.23 0.24 0.21 0.23 0.34 0.52 0.61 0.59 0.45 0.37 0.29 0.23 0.17 0.11 0.07 0.05 0.04 0.03 0.01 0.01 0.01 0.01 0.01 0.01 0.01 0.00 0.00 0.00 0.00 0.00 0.00 0.00 0.00
0.05 0.06 0.07 0.06 0.06 0.05 0.05 0.07 0.07 0.07 0.05 0.05 0.06 0.07 0.10 0.16 0.22 0.26 0.28 0.28 0.37 0.55 0.63 0.64 0.55 0.43 0.34 0.27 0.22 0.18 0.12 0.07 0.05 0.04 0.02 0.01 0.01 0.00 0.01 0.01 0.01 0.00 0.00 0.00 0.00 0.00 0.00 0.00 0.00
0.05 0.10 0.10 0.05 0.06 0.06 0.06 0.06 0.05 0.06 0.05 0.05 0.04 0.06 0.09 0.10 0.17 0.23 0.29 0.32 0.39 0.52 0.61 0.61 0.59 0.53 0.41 0.33 0.27 0.24 0.19 0.12 0.08 0.06 0.04 0.01 0.00 0.00 0.00 0.00 0.00 0.00 0.00 0.00 0.00 0.00 0.00 0.01 0.01
0.05 0.08 0.09 0.06 0.05 0.07 0.06 0.06 0.05 0.06 0.06 0.04 0.03 0.05 0.09 0.09 0.13 0.21 0.29 0.29 0.34 0.46 0.57 0.61 0.59 0.60 0.51 0.39 0.30 0.26 0.23 0.17 0.12 0.08 0.06 0.03 0.01 0.01 0.01 0.00 0.00 0.01 0.01 0.00 0.00 0.01 0.01 0.01 0.01
0.04 0.05 0.06 0.07 0.06 0.06 0.06 0.06 0.06 0.06 0.06 0.06 0.05 0.05 0.08 0.12 0.12 0.20 0.30 0.33 0.29 0.39 0.50 0.55 0.54 0.58 0.57 0.49 0.36 0.29 0.24 0.20 0.15 0.11 0.07 0.04 0.03 0.02 0.02 0.01 0.01 0.02 0.01 0.00 0.00 0.01 0.00 0.00 0.00
0.02 0.03 0.04 0.03 0.04 0.07 0.07 0.06 0.06 0.06 0.07 0.06 0.06 0.05 0.06 0.10 0.12 0.17 0.27 0.37 0.32 0.35 0.48 0.52 0.47 0.48 0.50 0.48 0.40 0.31 0.26 0.21 0.18 0.14 0.11 0.07 0.05 0.03 0.03 0.02 0.01 0.01 0.01 0.01 0.01 0.01 0.01 0.01 0.01
0.03 0.04 0.03 0.02 0.03 0.05 0.07 0.05 0.06 0.06 0.07 0.06 0.06 0.04 0.05 0.06 0.11 0.13 0.18 0.28 0.33 0.35 0.42 0.50 0.45 0.42 0.40 0.39 0.36 0.34 0.32 0.24 0.22 0.20 0.13 0.08 0.05 0.04 0.03 0.03 0.03 0.03 0.02 0.02 0.01 0.01 0.01 0.01 0.02
0.03 0.03 0.02 0.03 0.04 0.06 0.08 0.05 0.04 0.04 0.07 0.06 0.05 0.04 0.03 0.05 0.08 0.09 0.13 0.21 0.29 0.34 0.38 0.43 0.45 0.41 0.40 0.38 0.34 0.31 0.33 0.29 0.23 0.23 0.18 0.10 0.07 0.05 0.04 0.04 0.05 0.05 0.05 0.04 0.03 0.03 0.03 0.03 0.03
0.02 0.02 0.03 0.04 0.05 0.08 0.08 0.07 0.05 0.03 0.05 0.06 0.04 0.03 0.02 0.04 0.07 0.07 0.08 0.14 0.21 0.28 0.36 0.40 0.41 0.37 0.35 0.36 0.36 0.33 0.29 0.29 0.22 0.19 0.20 0.17 0.13 0.09 0.07 0.06 0.07 0.07 0.06 0.05 0.05 0.05 0.05 0.05 0.05
0.01 0.02 0.03 0.04 0.05 0.06 0.06 0.06 0.05 0.03 0.04 0.04 0.04 0.04 0.03 0.05 0.06 0.05 0.07 0.10 0.15 0.19 0.28 0.34 0.36 0.35 0.31 0.29 0.29 0.30 0.29 0.29 0.28 0.21 0.18 0.16 0.13 0.11 0.09 0.08 0.07 0.07 0.07 0.07 0.07 0.07 0.07 0.08 0.08
0.01 0.01 0.02 0.03 0.06 0.07 0.05 0.05 0.06 0.04 0.04 0.04 0.04 0.06 0.05 0.06 0.05 0.04 0.05 0.09 0.12 0.14 0.21 0.26 0.28 0.30 0.27 0.25 0.26 0.26 0.26 0.27 0.27 0.24 0.19 0.16 0.14 0.11 0.09 0.08 0.08 0.08 0.09 0.09 0.09 0.08 0.09 0.11 0.11
0.01 0.03 0.04 0.05 0.05 0.05 0.02 0.03 0.05 0.04 0.05 0.05 0.04 0.08 0.09 0.06 0.04 0.04 0.04 0.05 0.09 0.11 0.16 0.19 0.18 0.19 0.20 0.21 0.23 0.22 0.23 0.25 0.24 0.20 0.17 0.14 0.14 0.12 0.10 0.09 0.08 0.09 0.10 0.12 0.12 0.11 0.10 0.11 0.12
0.01 0.03 0.05 0.06 0.04 0.02 0.02 0.03 0.05 0.04 0.06 0.06 0.06 0.06 0.07 0.05 0.05 0.04 0.03 0.03 0.07 0.09 0.13 0.16 0.16 0.13 0.11 0.12 0.14 0.17 0.19 0.22 0.20 0.20 0.17 0.15 0.13 0.11 0.10 0.11 0.09 0.08 0.10 0.12 0.12 0.11 0.11 0.11 0.11
0.01 0.03 0.03 0.04 0.03 0.02 0.02 0.02 0.02 0.02 0.04 0.04 0.04 0.04 0.04 0.04 0.04 0.04 0.03 0.03 0.06 0.08 0.10 0.13 0.16 0.13 0.10 0.10 0.11 0.11 0.12 0.13 0.15 0.16 0.18 0.16 0.13 0.12 0.10 0.10 0.09 0.09 0.08 0.08 0.07 0.07 0.07 0.08 0.07
0.01 0.02 0.03 0.04 0.05 0.04 0.02 0.02 0.03 0.02 0.03 0.05 0.05 0.04 0.04 0.04 0.04 0.04 0.04 0.04 0.07 0.09 0.09 0.10 0.12 0.12 0.09 0.09 0.11 0.10 0.10 0.10 0.11 0.13 0.16 0.15 0.14 0.13 0.12 0.11 0.09 0.09 0.08 0.08 0.07 0.06 0.07 0.07 0.07
0.01 0.01 0.02 0.02 0.03 0.03 0.03 0.03 0.03 0.03 0.03 0.04 0.05 0.05 0.05 0.04 0.04 0.04 0.03 0.04 0.06 0.07 0.09 0.11 0.10 0.09 0.09 0.08 0.10 0.12 0.10 0.11 0.11 0.12 0.14 0.16 0.15 0.13 0.12 0.12 0.10 0.09 0.08 0.07 0.07 0.07 0.07 0.07 0.07
0.01 0.01 0.01 0.02 0.02 0.02 0.03 0.03 0.02 0.03 0.02 0.02 0.02 0.03 0.03 0.02 0.02 0.02 0.02 0.02 0.03 0.04 0.06 0.10 0.08 0.07 0.07 0.06 0.07 0.09 0.10 0.10 0.10 0.12 0.13 0.16 0.18 0.16 0.14 0.14 0.12 0.10 0.09 0.09 0.08 0.08 0.08 0.08 0.08
MSLP
1014.70 1014.82 1014.85 1014.72 1014.35 1013.74 1012.91 1011.93 1010.89 1009.87 1008.95 1008.15 1007.48 1006.90 1006.36 1005.84 1005.33 1004.85 1004.47 1004.24 1004.24 1004.51 1005.04 1005.79 1006.68 1007.60 1008.46 1009.19 1009.78 1010.24 1010.61 1010.96 1011.36 1011.83 1012.39 1013.01 1013.63 1014.23 1014.76 1015.20 1015.55 1015.84 1016.09 1016.34 1016.59 1016.85 1017.09 1017.31 1017.47
1014.95 1015.05 1015.02 1014.79 1014.30 1013.56 1012.61 1011.52 1010.39 1009.30 1008.34 1007.53 1006.84 1006.25 1005.71 1005.17 1004.63 1004.14 1003.75 1003.54 1003.58 1003.92 1004.54 1005.40 1006.40 1007.42 1008.37 1009.17 1009.80 1010.27 1010.64 1010.98 1011.36 1011.81 1012.35 1012.97 1013.60 1014.22 1014.78 1015.25 1015.64 1015.97 1016.26 1016.54 1016.82 1017.09 1017.35 1017.57 1017.74
1015.21 1015.26 1015.15 1014.81 1014.21 1013.36 1012.33 1011.18 1010.03 1008.95 1008.02 1007.23 1006.57 1005.99 1005.44 1004.87 1004.29 1003.75 1003.32 1003.08 1003.11 1003.46 1004.13 1005.04 1006.12 1007.22 1008.25 1009.12 1009.79 1010.30 1010.68 1011.02 1011.38 1011.82 1012.34 1012.95 1013.58 1014.21 1014.78 1015.28 1015.71 1016.08 1016.41 1016.72 1017.03 1017.32 1017.59 1017.82 1017.99
1015.43 1015.42 1015.22 1014.78 1014.09 1013.18 1012.11 1010.97 1009.85 1008.85 1008.00 1007.30 1006.70 1006.16 1005.61 1005.02 1004.39 1003.78 1003.26 1002.95 1002.92 1003.23 1003.88 1004.79 1005.89 1007.03 1008.10 1009.02 1009.74 1010.28 1010.70 1011.05 1011.42 1011.85 1012.37 1012.97 1013.60 1014.24 1014.83 1015.36 1015.83 1016.23 1016.60 1016.95 1017.28 1017.59 1017.86 1018.09 1018.27
1015.58 1015.50 1015.22 1014.69 1013.94 1013.01 1011.95 1010.87 1009.86 1008.98 1008.26 1007.68 1007.18 1006.70 1006.17 1005.56 1004.89 1004.20 1003.59 1003.18 1003.05 1003.27 1003.83 1004.68 1005.73 1006.85 1007.93 1008.86 1009.62 1010.21 1010.66 1011.05 1011.45 1011.90 1012.43 1013.03 1013.68 1014.34 1014.96 1015.53 1016.03 1016.48 1016.88 1017.25 1017.59 1017.91 1018.18 1018.41 1018.59
1015.61 1015.46 1015.10 1014.52 1013.74 1012.82 1011.83 1010.86 1009.98 1009.26 1008.70 1008.25 1007.86 1007.46 1006.97 1006.36 1005.65 1004.90 1004.21 1003.70 1003.45 1003.54 1003.98 1004.72 1005.67 1006.72 1007.75 1008.67 1009.44 1010.06 1010.56 1011.01 1011.45 1011.94 1012.51 1013.14 1013.82 1014.50 1015.16 1015.77 1016.32 1016.80 1017.24 1017.62 1017.97 1018.28 1018.55 1018.76 1018.92
1015.47 1015.26 1014.85 1014.24 1013.47 1012.59 1011.69 1010.85 1010.12 1009.56 1009.15 1008.83 1008.55 1008.23 1007.78 1007.21 1006.49 1005.71 1004.97 1004.37 1004.03 1003.99 1004.28 1004.88 1005.69 1006.62 1007.57 1008.45 1009.21 1009.85 1010.40 1010.90 1011.40 1011.95 1012.57 1013.25 1013.97 1014.69 1015.40 1016.05 1016.65 1017.17 1017.62 1018.03 1018.37 1018.66 1018.90 1019.09 1019.24
1015.16 1014.90 1014.45 1013.83 1013.08 1012.28 1011.48 1010.76 1010.18 1009.75 1009.46 1009.25 1009.06 1008.80 1008.42 1007.88 1007.20 1006.44 1005.69 1005.06 1004.65 1004.51 1004.67 1005.11 1005.78 1006.57 1007.41 1008.22 1008.95 1009.60 1010.18 1010.74 1011.30 1011.92 1012.59 1013.32 1014.09 1014.86 1015.61 1016.31 1016.94 1017.49 1017.97 1018.38 1018.71 1018.98 1019.19 1019.35 1019.47
1014.70 1014.38 1013.90 1013.28 1012.58 1011.84 1011.15 1010.54 1010.07 1009.74 1009.53 1009.39 1009.26 1009.05 1008.72 1008.25 1007.64 1006.94 1006.24 1005.63 1005.20 1005.00 1005.07 1005.38 1005.90 1006.56 1007.28 1008.00 1008.69 1009.33 1009.94 1010.54 1011.16 1011.84 1012.56 1013.34 1014.14 1014.96 1015.74 1016.48 1017.14 1017.72 1018.21 1018.61 1018.93 1019.17 1019.35 1019.48 1019.59
1014.12 1013.74 1013.23 1012.62 1011.96 1011.29 1010.68 1010.16 1009.76 1009.49 1009.32 1009.21 1009.09 1008.92 1008.64 1008.24 1007.73 1007.14 1006.54 1006.01 1005.61 1005.41 1005.41 1005.63 1006.04 1006.57 1007.18 1007.82 1008.45 1009.08 1009.70 1010.34 1011.00 1011.71 1012.47 1013.28 1014.11 1014.95 1015.77 1016.53 1017.22 1017.81 1018.31 1018.72 1019.02 1019.24 1019.39 1019.49 1019.58
1013.48 1013.04 1012.50 1011.89 1011.26 1010.64 1010.09 1009.63 1009.27 1009.02 1008.84 1008.72 1008.60 1008.45 1008.22 1007.90 1007.50 1007.04 1006.58 1006.17 1005.85 1005.68 1005.68 1005.84 1006.16 1006.59 1007.10 1007.67 1008.26 1008.87 1009.49 1010.15 1010.84 1011.57 1012.35 1013.17 1014.01 1014.86 1015.68 1016.45 1017.16 1017.77 1018.28 1018.68 1018.98 1019.19 1019.32 1019.41 1019.48
1012.84 1012.32 1011.74 1011.12 1010.50 1009.93 1009.41 1008.98 1008.64 1008.38 1008.19 1008.04 1007.90 1007.75 1007.56 1007.33 1007.05 1006.73 1006.42 1006.14 1005.93 1005.83 1005.84 1005.97 1006.23 1006.60 1007.04 1007.55 1008.11 1008.71 1009.33 1010.00 1010.70 1011.44 1012.22 1013.03 1013.86 1014.70 1015.52 1016.29 1017.00 1017.62 1018.15 1018.56 1018.86 1019.07 1019.20 1019.28 1019.35
1012.23 1011.64 1011.00 1010.36 1009.75 1009.19 1008.70 1008.28 1007.94 1007.66 1007.44 1007.26 1007.10 1006.96 1006.81 1006.66 1006.48 1006.30 1006.13 1005.98 1005.88 1005.84 1005.88 1006.01 1006.24 1006.56 1006.97 1007.45 1007.99 1008.59 1009.22 1009.89 1010.60 1011.34 1012.11 1012.91 1013.72 1014.53 1015.33 1016.09 1016.80 1017.44 1017.98 1018.41 1018.73 1018.96 1019.10 1019.19 1019.27
1011.68 1011.02 1010.33 1009.66 1009.04 1008.49 1008.01 1007.59 1007.24 1006.95 1006.70 1006.50 1006.34 1006.20 1006.09 1006.00 1005.92 1005.85 1005.78 1005.73 1005.71 1005.72 1005.79 1005.92 1006.15 1006.46 1006.85 1007.33 1007.88 1008.49 1009.15 1009.84 1010.56 1011.29 1012.05 1012.82 1013.59 1014.38 1015.15 1015.91 1016.61 1017.26 1017.82 1018.28 1018.64 1018.90 1019.07 1019.18 1019.27
1011.21 1010.48 1009.75 1009.06 1008.42 1007.86 1007.38 1006.96 1006.60 1006.29 1006.03 1005.83 1005.66 1005.55 1005.48 1005.44 1005.43 1005.43 1005.43 1005.44 1005.46 1005.49 1005.58 1005.72 1005.94 1006.26 1006.67 1007.17 1007.76 1008.41 1009.10 1009.82 1010.55 1011.29 1012.03 1012.77 1013.52 1014.27 1015.02 1015.75 1016.46 1017.12 1017.70 1018.20 1018.60 1018.91 1019.12 1019.28 1019.39
1010.80 1010.05 1009.29 1008.58 1007.93 1007.35 1006.84 1006.41 1006.03 1005.72 1005.46 1005.26 1005.11 1005.02 1004.98 1004.99 1005.01 1005.05 1005.08 1005.10 1005.13 1005.17 1005.25 1005.40 1005.63 1005.97 1006.42 1006.97 1007.61 1008.31 1009.05 1009.81 1010.56 1011.30 1012.03 1012.75 1013.47 1014.18 1014.91 1015.63 1016.33 1017.00 1017.61 1018.14 1018.59 1018.95 1019.22 1019.43 1019.58
1010.47 1009.72 1008.97 1008.25 1007.58 1006.97 1006.44 1005.97 1005.57 1005.24 1004.97 1004.78 1004.65 1004.59 1004.58 1004.61 1004.65 1004.70 1004.72 1004.74 1004.75 1004.78 1004.85 1004.99 1005.25 1005.62 1006.12 1006.73 1007.44 1008.21 1009.00 1009.80 1010.57 1011.32 1012.04 1012.73 1013.42 1014.11 1014.81 1015.51 1016.21 1016.88 1017.50 1018.07 1018.57 1018.98 1019.32 1019.58 1019.79
1010.21 1009.51 1008.79 1008.08 1007.40 1006.76 1006.18 1005.66 1005.22 1004.85 1004.57 1004.37 1004.25 1004.21 1004.22 1004.26 1004.32 1004.35 1004.36 1004.35 1004.34 1004.35 1004.41 1004.57 1004.85 1005.28 1005.84 1006.52 1007.29 1008.11 1008.96 1009.79 1010.58 1011.33 1012.03 1012.71 1013.37 1014.03 1014.70 1015.38 1016.05 1016.72 1017.36 1017.95 1018.48 1018.95 1019.34 1019.67 1019.94
1010.02 1009.41 1008.75 1008.07 1007.38 1006.71 1006.07 1005.48 1004.97 1004.54 1004.22 1004.01 1003.89 1003.85 1003.88 1003.93 1003.98 1004.01 1004.01 1003.98 1003.95 1003.95 1004.02 1004.20 1004.52 1005.00 1005.62 1006.36 1007.20 1008.07 1008.94 1009.79 1010.58 1011.32 1012.00 1012.65 1013.28 1013.92 1014.56 1015.21 1015.87 1016.52 1017.16 1017.76 1018.31 1018.82 1019.27 1019.66 1019.99
1009.91 1009.42 1008.84 1008.21 1007.52 1006.82 1006.11 1005.44 1004.84 1004.34 1003.96 1003.70 1003.56 1003.53 1003.55 1003.61 1003.67 1003.70 1003.69 1003.66 1003.63 1003.65 1003.74 1003.96 1004.34 1004.87 1005.54 1006.34 1007.20 1008.09 1008.98 1009.82 1010.59 1011.30 1011.96 1012.58 1013.19 1013.79 1014.41 1015.03 1015.67 1016.29 1016.91 1017.50 1018.07 1018.59 1019.08 1019.53 1019.92
1009.84 1009.49 1009.03 1008.45 1007.78 1007.04 1006.28 1005.53 1004.84 1004.25 1003.80 1003.49 1003.32 1003.27 1003.30 1003.36 1003.43 1003.47 1003.48 1003.47 1003.47 1003.51 1003.65 1003.92 1004.34 1004.92 1005.64 1006.46 1007.33 1008.22 1009.08 1009.88 1010.62 1011.29 1011.92 1012.52 1013.10 1013.68 1014.27 1014.87 1015.47 1016.07 1016.66 1017.23 1017.78 1018.31 1018.82 1019.30 1019.74
1009.82 1009.60 1009.24 1008.74 1008.10 1007.36 1006.55 1005.74 1004.97 1004.31 1003.79 1003.43 1003.23 1003.16 1003.18 1003.26 1003.34 1003.40 1003.43 1003.46 1003.49 1003.59 1003.77 1004.09 1004.56 1005.17 1005.90 1006.72 1007.57 1008.42 1009.23 1009.99 1010.67 1011.31 1011.90 1012.47 1013.03 1013.60 1014.18 1014.76 1015.34 1015.90 1016.45 1016.99 1017.51 1018.03 1018.54 1019.03 1019.51
1009.78 1009.68 1009.43 1009.01 1008.43 1007.71 1006.90 1006.06 1005.25 1004.54 1003.98 1003.58 1003.35 1003.26 1003.28 1003.35 1003.44 1003.53 1003.59 1003.65 1003.73 1003.86 1004.10 1004.45 1004.94 1005.56 1006.28 1007.07 1007.87 1008.66 1009.41 1010.10 1010.74 1011.33 1011.90 1012.46 1013.01 1013.58 1014.15 1014.72 1015.27 1015.81 1016.32 1016.81 1017.29 1017.78 1018.27 1018.77 1019.27
1009.72 1009.71 1009.54 1009.21 1008.70 1008.04 1007.28 1006.46 1005.67 1004.96 1004.39 1003.98 1003.73 1003.63 1003.63 1003.70 1003.79 1003.89 1003.97 1004.05 1004.15 1004.32 1004.57 1004.93 1005.42 1006.02 1006.70 1007.42 1008.17 1008.89 1009.57 1010.20 1010.78 1011.34 1011.90 1012.45 1013.02 1013.59 1014.17 1014.73 1015.27 1015.77 1016.24 1016.69 1017.14 1017.58 1018.05 1018.53 1019.03
1009.61 1009.65 1009.56 1009.31 1008.90 1008.34 1007.66 1006.93 1006.21 1005.56 1005.03 1004.63 1004.39 1004.28 1004.27 1004.32 1004.40 1004.47 1004.54 1004.62 1004.72 1004.88 1005.12 1005.46 1005.91 1006.46 1007.08 1007.73 1008.39 1009.03 1009.65 1010.22 1010.78 1011.32 1011.87 1012.43 1013.02 1013.61 1014.20 1014.76 1015.28 1015.76 1016.19 1016.60 1017.00 1017.41 1017.85 1018.32 1018.82
1009.48 1009.52 1009.48 1009.32 1009.02 1008.59 1008.06 1007.47 1006.87 1006.33 1005.87 1005.53 1005.31 1005.20 1005.17 1005.18 1005.22 1005.25 1005.28 1005.31 1005.38 1005.49 1005.69 1005.97 1006.36 1006.83 1007.36 1007.93 1008.51 1009.07 1009.62 1010.16 1010.69 1011.23 1011.79 1012.37 1012.97 1013.58 1014.17 1014.73 1015.24 1015.69 1016.10 1016.47 1016.84 1017.23 1017.65 1018.11 1018.60
1009.35 1009.38 1009.36 1009.27 1009.09 1008.82 1008.47 1008.06 1007.64 1007.24 1006.90 1006.63 1006.45 1006.33 1006.27 1006.23 1006.20 1006.17 1006.12 1006.09 1006.08 1006.12 1006.24 1006.44 1006.74 1007.11 1007.54 1008.02 1008.52 1009.02 1009.52 1010.02 1010.53 1011.07 1011.64 1012.23 1012.84 1013.46 1014.05 1014.59 1015.08 1015.51 1015.90 1016.25 1016.60 1016.98 1017.40 1017.86 1018.36
1009.28 1009.26 1009.26 1009.24 1009.19 1009.08 1008.92 1008.72 1008.49 1008.26 1008.05 1007.87 1007.72 1007.61 1007.51 1007.41 1007.30 1007.18 1007.05 1006.92 1006.82 1006.77 1006.79 1006.89 1007.08 1007.35 1007.68 1008.07 1008.48 1008.91 1009.37 1009.84 1010.34 1010.88 1011.44 1012.03 1012.64 1013.24 1013.81 1014.33 1014.79 1015.20 1015.56 1015.90 1016.26 1016.64 1017.08 1017.57 1018.10
1009.33 1009.26 1009.26 1009.31 1009.37 1009.42 1009.46 1009.46 1009.42 1009.36 1009.28 1009.18 1009.08 1008.95 1008.82 1008.65 1008.46 1008.25 1008.03 1007.81 1007.61 1007.47 1007.39 1007.39 1007.47 1007.63 1007.86 1008.15 1008.48 1008.86 1009.27 1009.71 1010.18 1010.70 1011.24 1011.82 1012.39 1012.95 1013.47 1013.95 1014.38 1014.76 1015.10 1015.45 1015.82 1016.23 1016.71 1017.25 1017.84
1009.54 1009.42 1009.42 1009.52 1009.69 1009.89 1010.09 1010.28 1010.41 1010.50 1010.53 1010.50 1010.42 1010.30 1010.12 1009.90 1009.65 1009.36 1009.06 1008.76 1008.49 1008.26 1008.09 1008.00 1007.98 1008.04 1008.18 1008.38 1008.63 1008.94 1009.29 1009.69 1010.13 1010.61 1011.11 1011.64 1012.16 1012.66 1013.12 1013.55 1013.93 1014.28 1014.61 1014.97 1015.37 1015.83 1016.36 1016.96 1017.61
Thickness
5647 5652 5655 5651 5641 5640 5657 5685 5702 5711 5723 5739 5745 5747 5746 5744 5741 5733 5760 5778 5780 5779 5775 5770 5768 5766 5765 5764 5763 5761 5759 5757 5755 5754 5752 5750 5748 5746 5745 5743 5741 5739 5738 5736 5734 5732 5731 5729 5728
5636 5641 5639 5632 5627 5632 5657 5682 5690 5705 5720 5731 5735 5739 5739 5737 5746 5747 5759 5769 5773 5772 5769 5766 5763 5762 5760 5760 5759 5757 5756 5754 5752 5750 5749 5747 5745 5743 5742 5740 5738 5736 5734 5733 5731 5729 5727 5726 5724
5624 5627 5621 5618 5622 5636 5658 5681 5688 5701 5712 5716 5719 5727 5729 5729 5738 5744 5754 5761 5763 5763 5762 5760 5758 5757 5756 5755 5754 5753 5752 5750 5749 5747 5745 5744 5742 5740 5738 5737 5735 5733 5731 5729 5727 5725 5724 5722 5721
5612 5609 5606 5607 5619 5639 5655 5668 5678 5684 5694 5703 5705 5706 5719 5730 5735 5742 5751 5754 5753 5755 5755 5753 5752 5751 5750 5750 5750 5749 5748 5747 5745 5743 5742 5740 5738 5737 5735 5733 5731 5729 5727 5725 5724 5722 5720 5719 5718
5598 5593 5590 5596 5612 5631 5647 5657 5664 5665 5673 5684 5690 5689 5698 5718 5730 5735 5742 5745 5744 5746 5747 5745 5745 5745 5745 5745 5745 5744 5744 5742 5741 5740 5738 5737 5735 5733 5731 5729 5727 5725 5723 5722 5720 5719 5717 5716 5715
5580 5580 5579 5588 5603 5621 5636 5646 5650 5652 5660 5670 5674 5676 5685 5704 5713 5721 5730 5734 5738 5738 5739 5738 5738 5739 5739 5739 5739 5739 5739 5738 5737 5736 5734 5733 5731 5729 5727 5724 5723 5721 5720 5718 5716 5715 5714 5713 5712
5567 5567 5573 5585 5594 5607 5623 5634 5636 5639 5645 5655 5662 5662 5673 5688 5699 5709 5717 5724 5729 5730 5731 5730 5731 5732 5732 5733 5733 5734 5733 5733 5732 5731 5730 5728 5726 5725 5722 5720 5719 5717 5716 5714 5713 5712 5710 5709 5708
5562 5558 5566 5577 5584 5597 5612 5620 5627 5628 5635 5649 5653 5652 5660 5676 5689 5699 5706 5714 5719 5721 5723 5723 5724 5725 5726 5726 5727 5727 5728 5727 5727 5726 5725 5723 5722 5720 5718 5716 5714 5713 5712 5710 5709 5708 5707 5706 5705
5555 5547 5556 5569 5578 5589 5601 5605 5613 5622 5627 5635 5644 5649 5660 5671 5679 5685 5690 5698 5705 5711 5714 5716 5718 5719 5720 5721 5721 5721 5721 5722 5721 5720 5719 5718 5716 5715 5713 5712 5710 5709 5707 5706 5705 5704 5703 5702 5702
5546 5543 5557 5568 5574 5580 5588 5591 5597 5603 5608 5617 5628 5640 5652 5660 5666 5671 5676 5684 5692 5699 5705 5710 5712 5714 5716 5716 5715 5715 5716 5715 5716 5715 5714 5714 5713 5711 5710 5708 5706 5704 5703 5702 5701 5700 5699 5699 5699
5547 5547 5557 5563 5569 5572 5576 5580 5586 5589 5595 5605 5614 5626 5637 5646 5652 5660 5667 5676 5684 5692 5698 5703 5707 5709 5710 5711 5711 5711 5711 5711 5712 5711 5711 5711 5709 5708 5706 5703 5701 5700 5699 5698 5697 5696 5696 5696 5696
5546 5550 5554 5557 5562 5563 5566 5571 5574 5583 5592 5603 5610 5617 5626 5633 5642 5651 5658 5667 5675 5681 5689 5694 5699 5701 5703 5705 5706 5706 5707 5707 5708 5708 5708 5708 5707 5705 5702 5701 5698 5697 5696 5695 5694 5694 5694 5694 5694
5543 5546 5550 5554 5556 5557 5561 5564 5567 5578 5589 5597 5604 5611 5618 5625 5634 5642 5651 5660 5666 5671 5678 5684 5691 5694 5696 5697 5699 5700 5702 5703 5704 5704 5705 5705 5704 5702 5700 5698 5696 5695 5694 5693 5692 5692 5693 5693 5692
5540 5541 5543 5547 5550 5553 5555 5560 5563 5576 5585 5590 5597 5604 5611 5620 5626 5633 5640 5648 5655 5662 5667 5672 5679 5685 5689 5690 5691 5695 5696 5698 5699 5700 5701 5700 5700 5699 5697 5696 5694 5693 5692 5691 5690 5690 5690 5690 5689
5536 5532 5536 5542 5545 5549 5550 5553 5562 5574 5580 5585 5592 5599 5607 5614 5621 5627 5634 5641 5647 5653 5658 5662 5668 5674 5679 5681 5684 5687 5689 5692 5693 5694 5695 5696 5696 5695 5694 5693 5691 5691 5690 5688 5688 5687 5687 5686 5685
5529 5525 5527 5541 5546 5549 5544 5546 5563 5571 5576 5580 5586 5594 5602 5609 5615 5621 5627 5633 5639 5645 5650 5654 5659 5664 5669 5672 5676 5679 5682 5684 5686 5688 5690 5691 5691 5691 5690 5689 5688 5688 5687 5685 5684 5683 5682 5680 5679
5524 5522 5528 5538 5545 5545 5542 5546 5561 5568 5571 5576 5583 5590 5597 5603 5610 5614 5620 5625 5632 5636 5642 5647 5650 5654 5659 5663 5668 5672 5675 5678 5680 5681 5683 5685 5686 5686 5685 5685 5684 5684 5682 5681 5680 5679 5677 5674 5673
5519 5523 5528 5530 5538 5541 5542 5548 5558 5564 5569 5573 5579 5586 5591 5597 5603 5609 5614 5618 5623 5628 5634 5640 5645 5647 5650 5655 5659 5662 5667 5670 5673 5675 5677 5679 5681 5681 5680 5680 5680 5679 5677 5675 5674 5672 5672 5670 5669
5525 5524 5523 5530 5537 5537 5540 5547 5555 5561 5565 5568 5574 5579 5585 5593 5599 5603 5607 5611 5615 5619 5625 5632 5637 5640 5644 5647 5650 5652 5657 5662 5666 5669 5671 5673 5674 5675 5675 5675 5675 5675 5672 5670 5669 5667 5665 5664 5664
5524 5520 5521 5530 5538 5537 5538 5546 5554 5561 5563 5567 5570 5574 5581 5588 5593 5596 5601 5606 5610 5614 5620 5625 5631 5635 5639 5643 5646 5649 5652 5657 5661 5662 5664 5666 5668 5669 5670 5670 5670 5669 5667 5665 5664 5662 5659 5658 5658
5522 5518 5519 5524 5531 5538 5538 5543 5554 5560 5564 5566 5569 5573 5578 5583 5586 5590 5595 5601 5605 5609 5615 5620 5625 5628 5634 5638 5641 5642 5644 5648 5650 5654 5657 5660 5663 5664 5665 5665 5664 5664 5662 5660 5659 5658 5655 5652 5652
5519 5527 5526 5526 5522 5526 5535 5530 5548 5558 5559 5562 5564 5568 5573 5578 5583 5587 5591 5595 5599 5604 5610 5615 5619 5623 5628 5631 5634 5636 5637 5641 5646 5650 5652 5654 5656 5658 5659 5659 5659 5658 5657 5656 5655 5654 5651 5648 5646
5524 5529 5527 5526 5524 5525 5534 5529 5540 5555 5552 5555 5559 5562 5567 5574 5581 5585 5588 5592 5596 5599 5603 5608 5613 5617 5621 5625 5628 5631 5633 5636 5640 5643 5645 5646 5649 5651 5653 5653 5653 5652 5651 5650 5649 5648 5647 5645 5642
5528 5527 5530 5531 5525 5521 5536 5534 5534 5542 5546 5550 5555 5559 5564 5570 5576 5579 5583 5587 5590 5593 5596 5601 5606 5610 5614 5618 5622 5625 5627 5630 5633 5636 5638 5640 5641 5644 5645 5646 5646 5646 5645 5644 5643 5643 5642 5640 5638
5524 5516 5516 5521 5521 5527 5544 5537 5530 5539 5545 5549 5552 5555 5561 5565 5569 5572 5576 5580 5584 5587 5591 5595 5599 5602 5607 5611 5615 5619 5622 5624 5628 5631 5633 5634 5635 5637 5639 5639 5638 5639 5638 5637 5637 5637 5636 5635 5633
5519 5517 5509 5512 5522 5529 5538 5531 5531 5540 5544 5547 5550 5552 5556 5560 5563 5567 5570 5573 5578 5582 5586 5589 5593 5598 5602 5604 5608 5612 5615 5616 5621 5624 5627 5630 5631 5633 5634 5633 5632 5632 5631 5630 5629 5628 5628 5628 5627
5519 5516 5518 5513 5520 5520 5530 5534 5535 5538 5538 5540 5542 5546 5548 5551 5556 5559 5563 5567 5571 5575 5580 5583 5587 5592 5595 5598 5602 5606 5607 5610 5614 5617 5620 5622 5624 5626 5626 5626 5625 5624 5623 5622 5622 5620 5620 5620 5619
5520 5520 5514 5511 5514 5520 5530 5529 5521 5523 5528 5531 5532 5535 5539 5544 5548 5551 5554 5558 5562 5567 5572 5576 5580 5585 5589 5592 5595 5598 5601 5604 5607 5609 5611 5614 5616 5618 5618 5618 5617 5616 5615 5613 5612 5612 5611 5610 5609
5517 5516 5515 5514 5516 5513 5515 5516 5522 5521 5523 5523 5524 5527 5531 5535 5539 5542 5546 5549 5553 5557 5563 5568 5572 5576 5580 5583 5586 5589 5593 5595 5598 5600 5603 5605 5607 5609 5610 5610 5609 5608 5607 5606 5604 5604 5602 5601 5599
5519 5517 5514 5507 5510 5516 5507 5507 5522 5521 5521 5520 5519 5521 5524 5527 5530 5533 5537 5541 5544 5548 5552 5557 5561 5565 5569 5572 5575 5578 5582 5585 5589 5591 5593 5595 5597 5600 5601 5602 5601 5600 5598 5597 5596 5595 5593 5592 5590